Location: Mount Hamilton
(37.3433°N, 121.6347°W)
Time: 12:24:10
(UTC-08:00)

Hubble Space Telescope - Visible Passes

Search period start: 22 January 2018 00:00
Search period end: 01 February 2018 00:00
Orbit: 537 x 541 km, 28.5° (Epoch: 22 January)

Date Brightness Start Highest point End Pass type
(mag) Time Alt. Az. Time Alt. Az. Time Alt. Az.
22 Jan 3.1 19:17:40 10° SSW 19:19:17 14° S 19:19:17 14° S visible
23 Jan 2.8 19:06:55 10° SSW 19:09:33 16° SSE 19:09:42 16° SSE visible
24 Jan 2.6 18:56:18 10° SSW 18:59:12 18° SSE 19:00:05 17° SSE visible
25 Jan 2.6 18:45:46 10° SW 18:48:50 20° S 18:50:29 16° SE visible
26 Jan 2.6 18:35:18 10° SW 18:38:29 22° S 18:40:52 14° SE visible
26 Jan 3.8 20:15:57 10° WSW 20:16:14 11° SW 20:16:14 11° SW visible
27 Jan 2.6 18:24:52 10° SW 18:28:09 23° S 18:31:17 11° SE visible
27 Jan 3.5 20:05:43 10° WSW 20:06:39 14° SW 20:06:39 14° SW visible
28 Jan 2.6 18:14:29 10° SW 18:17:49 23° S 18:21:07 10° SE visible
28 Jan 3.3 19:55:32 10° WSW 19:57:05 16° SW 19:57:05 16° SW visible
29 Jan 2.6 18:04:08 10° SW 18:07:28 24° S 18:10:47 10° SE visible
29 Jan 3.1 19:45:25 10° SW 19:47:34 16° SSW 19:47:34 16° SSW visible
30 Jan 2.7 17:53:50 10° WSW 17:57:07 23° S 18:00:25 10° SE visible
30 Jan 3.1 19:35:24 10° SW 19:37:44 15° SSW 19:38:07 15° S visible
31 Jan 3.3 19:25:32 10° SW 19:27:22 13° SSW 19:28:45 11° S visible
